x

Canaveral East - 120nm East Of Cape Canaveral (41010) Wave Buoy

10:50pm - Thu 24th Apr 2014 All times are EDT. -4 hours from GMT.

  • Sig Wave height 2.0ft
  • Swell Direction
  • Peak Period 8s
  • Average Period 7s
  • Wind
    11mph, 13mph gusts
  • Sea Temp 76°f
  • Air Temp 75°f
  • Sea Pressure 1016.8mb
  • Canaveral East - 120nm East Of Cape Canaveral
  • Canaveral East - 120nm East Of Cape Canaveral

More Historic Weather Station data

Upgrade to MSW Pro to gain access to the past 30 days of data for over 8000 Wavebouys and Weather Stations around the globe.

Join Pro

Comparision Forecast

View Surf forecast
   
Thu 04/24 10:50pm 2ft 8s 7s 11 13 mph 1016.8mb 76f 75f
10:20pm  -   -   -  11
mph
1016.7mb 76f 75f
9:50pm 1.6ft 15s 7s 11 13 mph 1016.6mb 76f 75f
9:20pm  -   -   -  9 11 mph 1016.6mb 76f 75f
8:50pm 2ft 9s 8s 9
mph
1016.3mb 76f 75f
8:20pm  -   -   -  9 11 mph 1016.1mb 76f 75f
7:50pm 1.6ft 8s 7s 7 9 mph 1016mb 76f 75f
6:50pm 1.6ft 8s 7s 7 9 mph 1015.8mb 76f 75f
6:20pm  -   -   -  7 9 mph 1015.9mb 76f 75f
5:50pm 1.6ft 15s 7s 7 9 mph 1015.8mb 77f 75f
5:20pm  -   -   -  7 9 mph 1015.9mb 77f 75f
4:50pm 1.6ft 9s 7s 7 9 mph 1016.1mb 77f 75f
4:20pm  -   -   -  7 9 mph 1016.1mb 77f 75f
3:50pm 1.6ft 8s 7s 7 9 mph 1016.2mb 77f 75f
3:20pm  -   -   -  7 9 mph 1016.5mb 77f 75f
2:50pm 1.6ft 8s 7s 7 9 mph 1016.7mb 77f 75f
2:20pm  -   -   -  7 9 mph 1017mb 77f 74f
1:50pm 1.6ft 8s 6s 9 11 mph 1017.2mb 76f 74f
1:20pm  -   -   -  9 11 mph 1017.4mb 76f 74f
12:50pm 1.6ft 8s 6s 9
mph
1017.7mb 76f 74f
12:20pm  -   -   -  7 9 mph 1017.9mb 76f 74f
11:50am 2ft 8s 6s 7
mph
1018mb 76f 74f
11:20am  -   -   -  4 7 mph 1018.1mb 76f 74f
10:50am 2ft 8s 6s 4 7 mph 1018mb 76f 74f
10:20am  -   -   -  4 7 mph 1017.9mb 76f 74f
9:50am 2ft 8s 6s 4 7 mph 1017.4mb 75f 74f
9:20am  -   -   -  4
mph
1017mb 75f 74f
8:50am 2ft 8s 6s 2 4 mph 1016.6mb 75f 74f
8:20am  -   -   -  2
mph
1016.3mb 75f 74f
7:50am 2.5ft 8s 6s 2
mph
1016mb 75f 74f
7:20am  -   -   -  2 4 mph 1015.6mb 75f 74f
6:50am 2.5ft 8s 6s  -  2 mph 1015.3mb 75f 73f
6:20am  -   -   -   -  2 mph 1014.9mb 75f 73f
5:50am 2.5ft 8s 6s  -  mph 1014.5mb 75f 73f
5:20am  -   -   -   -  2 mph 1014.3mb 75f 73f
4:50am 2.5ft 8s 5s 2 4 mph 1014.4mb 75f 73f
4:20am  -   -   -  2
mph
1014.3mb 75f 73f
3:50am 2.5ft 8s 5s 2 4 mph 1014.2mb 75f 73f
3:20am  -   -   -  2
mph
1014.3mb 75f 74f
2:50am 2.5ft 8s 6s 2 4 mph 1014.2mb 75f 74f
2:20am  -   -   -  4 7 mph 1014.3mb 75f 74f
1:50am 2.5ft 8s 5s 7
mph
1014.4mb 75f 74f
1:20am  -   -   -  7
mph
1014.7mb 75f 74f
12:50am 2.5ft 8s 5s 7
mph
1014.7mb 75f 74f
12:20am  -   -   -  7
mph
1014.7mb 75f 74f
Wed 04/23 11:50pm 2.5ft 8s 5s 4 7 mph 1014.8mb 75f 74f
11:20pm  -   -   -  7 9 mph 1014.7mb 75f 74f
10:50pm 2.5ft 8s 5s 7
mph
1014.5mb 75f 74f
10:20pm  -   -   -  4
mph
1014.4mb 75f 74f
9:50pm 2.5ft 8s 5s 4 7 mph 1014.3mb 75f 74f
9:20pm  -   -   -  4 7 mph 1014mb 75f 74f
8:50pm 2.5ft 9s 5s 4 7 mph 1013.7mb 75f 74f
8:20pm  -   -   -  4 7 mph 1013.3mb 75f 74f
7:50pm 3ft 8s 5s 4 7 mph 1013mb 75f 74f
7:20pm  -   -   -  7 9 mph 1012.7mb 75f 74f
6:50pm 3ft 9s 5s 7 9 mph 1012.4mb 76f 75f
6:20pm  -   -   -  9 11 mph 1012.3mb 76f 75f
5:50pm 3.5ft 8s 5s 11 13 mph 1012.1mb 76f 74f
5:20pm  -   -   -  11 16 mph 1012mb 76f 74f
4:50pm 3.5ft 9s 6s 11 13 mph 1012.1mb 76f 74f
4:20pm  -   -   -  11 13 mph 1012.1mb 76f 74f
3:50pm 3.5ft 9s 5s 11 13 mph 1012.4mb 76f 74f
3:20pm  -   -   -  11 13 mph 1012.6mb 76f 74f
2:50pm 3.5ft 8s 5s 11 13 mph 1012.8mb 76f 74f
2:20pm  -   -   -  11 13 mph 1013mb 76f 74f
1:50pm 3.5ft 8s 6s 11 13 mph 1012.8mb 76f 74f
1:20pm  -   -   -  13 16 mph 1013mb 76f 74f
12:50pm 3.5ft 9s 5s 11 16 mph 1013.1mb 76f 74f
12:20pm  -   -   -  11 13 mph 1013.5mb 76f 74f
11:50am 4ft 8s 5s 11 13 mph 1013.7mb 76f 74f
11:20am  -   -   -  11 13 mph 1013.9mb 76f 74f
10:50am 3.5ft 9s 5s 11 13 mph 1013.9mb 76f 74f
10:20am  -   -   -  11 16 mph 1013.6mb 76f 74f
9:50am 4.5ft 8s 5s 13 16 mph 1013.3mb 76f 74f
9:20am  -   -   -  13 16 mph 1013mb 76f 74f
8:50am 4ft 8s 5s 13 18 mph 1012.8mb 76f 74f
8:20am  -   -   -  13 16 mph 1012.7mb 76f 74f
7:50am 4ft 9s 6s 16 18 mph 1012.3mb 76f 74f
7:20am  -   -   -  13 18 mph 1012mb 75f 74f
6:50am 4ft 9s 6s 16 18 mph 1011.5mb 75f 75f
6:20am  -   -   -  16 18 mph 1011.2mb 75f 75f
5:50am 3.5ft 9s 6s 16 18 mph 1011mb 75f 75f
5:20am  -   -   -  16 18 mph 1010.6mb 75f 75f
4:50am 4ft 9s 6s 13 18 mph 1010.6mb 75f 74f
4:20am  -   -   -  13 16 mph 1010.6mb 75f 74f
3:50am 4ft 9s 6s 13 18 mph 1010.8mb 75f 74f
3:20am  -   -   -  13 18 mph 1010.9mb 75f 74f
2:50am 4.5ft 9s 7s 13 16 mph 1011.1mb 75f 74f
2:20am  -   -   -  11 13 mph 1011.4mb 75f 74f
1:50am 5ft 9s 7s 9 11 mph 1011.6mb 75f 74f
1:20am  -   -   -  9 11 mph 1011.8mb 75f 74f
12:50am 4.5ft 9s 7s 7 9 mph 1012mb 75f 74f
12:20am  -   -   -  9 11 mph 1012mb 75f 74f
Tue 04/22 11:50pm 4.5ft 9s 7s 7 9 mph 1012mb 75f 74f
11:20pm  -   -   -  7
mph
1012.1mb 75f 74f
10:50pm 5ft 9s 7s 4 9 mph 1012.3mb 75f 74f
10:20pm  -   -   -  4 7 mph 1012.3mb 75f 73f
9:50pm 5ft 9s 7s 4 7 mph 1012.2mb 75f 73f
9:20pm  -   -   -  7 9 mph 1012.1mb 76f 73f
8:50pm 5ft 10s 7s 9 11 mph 1011.6mb 76f 73f
8:20pm  -   -   -  9 11 mph 1011.3mb 76f 73f
7:50pm 5ft 9s 7s 9 11 mph 1011.1mb 76f 73f
7:20pm  -   -   -  9 11 mph 1011.1mb 76f 74f
6:50pm 5ft 10s 7s 11 13 mph 1011mb 75f 74f
6:20pm  -   -   -  11 13 mph 1011mb 74f 74f
5:50pm 5.5ft 10s 7s 9 11 mph 1011.2mb 74f 74f
5:20pm  -   -   -  11 13 mph 1011.4mb 74f 74f
4:50pm 6ft 9s 7s 13 16 mph 1011.3mb 75f 74f
4:20pm  -   -   -  13 18 mph 1011.4mb 75f 74f
3:50pm 5ft 9s 7s 16 18 mph 1011.6mb 76f 74f
3:20pm  -   -   -  4 7 mph 1012mb 76f 74f
2:50pm 5.5ft 10s 8s 4 7 mph 1012.3mb 76f 74f
2:20pm  -   -   -  4 7 mph 1012.7mb 76f 74f
1:50pm 6ft 10s 8s 7 9 mph 1013mb 76f 74f
1:20pm  -   -   -  4 7 mph 1013.1mb 76f 74f
12:50pm 5.5ft 10s 7s 4 9 mph 1013.3mb 76f 74f
12:20pm  -   -   -  4 7 mph 1013.4mb 75f 74f
11:50am 6ft 10s 8s 4 7 mph 1013.6mb 75f 74f
11:20am  -   -   -  7 9 mph 1013.6mb 74f 73f
10:50am 6ft 10s 7s 7 9 mph 1013.6mb 74f 74f
10:20am  -   -   -  7
mph
1013.5mb 74f 74f
9:50am 6ft 10s 7s 7 9 mph 1013.3mb 74f 74f
9:20am  -   -   -  9 11 mph 1013.3mb 74f 73f
8:50am 6ft 10s 7s 9 11 mph 1013.3mb 74f 73f
8:20am  -   -   -  9 11 mph 1013.3mb 74f 73f
7:50am 6ft 11s 7s 9 11 mph 1013.2mb 74f 73f
7:20am  -   -   -  9 11 mph 1013.1mb 74f 73f
6:50am 6ft 11s 7s 9 11 mph 1012.7mb 74f 73f
6:20am  -   -   -  11
mph
1012.3mb 74f 73f
5:50am 7ft 10s 7s 9 11 mph 1011.9mb 74f 73f
5:20am  -   -   -  11 13 mph 1011.7mb 74f 73f
4:50am 7ft 11s 7s 13 16 mph 1011.9mb 74f 73f
4:20am  -   -   -  16 18 mph 1012mb 74f 73f
3:50am 7ft 11s 7s 16 18 mph 1011.9mb 74f 73f
3:20am  -   -   -  18 20 mph 1011.7mb 74f 73f
2:50am 7.5ft 11s 7s 13 16 mph 1012.1mb 75f 73f
2:20am  -   -   -  13 16 mph 1012.4mb 75f 73f
1:50am 8ft 11s 7s 13 16 mph 1012.9mb 75f 73f
1:20am  -   -   -  13 16 mph 1013.4mb 75f 73f
12:50am 8ft 10s 7s 13 16 mph 1013.7mb 75f 73f
12:20am  -   -   -  11 13 mph 1013.9mb 75f 72f
Mon 04/21 11:50pm 7.5ft 11s 7s 16 18 mph 1014mb 75f 72f
11:20pm  -   -   -  16 18 mph 1014.1mb 75f 72f
10:50pm 8ft 11s 7s 13 18 mph 1014.1mb 75f 72f
10:20pm  -   -   -  16 18 mph 1014.1mb 75f 72f
9:50pm 8.5ft 12s 7s 18 20 mph 1014mb 75f 72f
9:20pm  -   -   -  18 22 mph 1014mb 75f 72f
8:50pm 9ft 11s 7s 16 20 mph 1013.8mb 75f 72f
8:20pm  -   -   -  18 22 mph 1013.5mb 75f 72f
7:50pm 9ft 11s 7s 18 22 mph 1013.2mb 75f 73f
6:50pm 9ft 11s 7s 20 25 mph 1012.9mb 75f 73f
6:20pm  -   -   -  20 25 mph 1013.3mb 75f 73f
5:50pm 9ft 10s 7s 20 25 mph 1013.1mb 75f 73f
5:20pm  -   -   -  22 27 mph 1012.8mb 75f 73f
4:50pm 9.5ft 11s 7s 22 27 mph 1012.8mb 75f 73f
4:20pm  -   -   -  25 29 mph 1013mb 75f 73f
3:50pm 9ft 9s 7s 22 27 mph 1013.1mb 75f 73f
3:20pm  -   -   -  22 25 mph 1013.5mb 74f 73f
2:50pm 9.5ft 11s 7s 22 27 mph 1013.6mb 74f 73f
2:20pm  -   -   -  25 27 mph 1013.6mb 74f 73f
1:50pm 10ft 10s 7s 22 27 mph 1013.9mb 74f 73f
1:20pm  -   -   -  22 27 mph 1014.1mb 74f 73f
12:50pm 8.5ft 11s 7s 22 25 mph 1014.3mb 74f 73f
12:20pm  -   -   -  20 25 mph 1014.7mb 74f 71f
11:50am 9.5ft 11s 7s 22 25 mph 1014.8mb 74f 70f
11:20am  -   -   -  22 27 mph 1014.7mb 74f 70f
10:50am 9.5ft 11s 7s 22 27 mph 1014.5mb 74f 72f
10:20am  -   -   -  20 25 mph 1014.5mb 74f 72f
9:50am 9ft 11s 7s 20 22 mph 1014.2mb 74f 72f
9:20am  -   -   -  20 22 mph 1014.2mb 74f 72f
8:50am 8ft 12s 7s 11 16 mph 1014.4mb 74f 69f
8:20am  -   -   -  22 29 mph 1014mb 74f 71f
7:50am 8ft 13s 7s 20 22 mph 1014mb 74f 72f
7:20am  -   -   -  18 22 mph 1013.9mb 74f 70f
6:50am 8ft 12s 7s 13 20 mph 1013.9mb 74f 70f
6:20am  -   -   -  16 20 mph 1013.4mb 74f 71f
5:50am 8ft 11s 7s 20 25 mph 1013.1mb 74f 71f
5:20am  -   -   -  20 25 mph 1012.9mb 74f 71f
4:50am 7.5ft 8s 6s 20 22 mph 1013.1mb 74f 72f
4:20am  -   -   -  18 20 mph 1013.2mb 74f 72f